Weather in Ivanovskoe

Russia / Stavropol Krai     44°34′53″N   41°52′41″E
temp.,
°C
wind,
m/s
gust,
m/s
humid.,
%
clouds,
%
prec.,
mm/h
press.,
hPa
HPBL,
m
15 may, sat
sat1500:00+17ssw337429 0.0 101227
03:00+15sw226473 0.0 101223
06:00+16sw22721 0.0 101328
09:00+21wnw45710 0.0 1014523
12:00+24nw33675 0.0 1014707
15:00+26n34625 0.0 10121202
18:00+24ne2374100 0.3 101396
21:00+20e1185100 0.3 101211
16 may, sun
sun1600:00+17s2290100 0.6 101124
03:00+16s119193 0.6 101112
06:00+16ssw12899 0.0 101056
09:00+22e23755 0.0 1009589
12:00+25e57636 0.0 10071237
15:00+25e78615 0.0 10061215
18:00+23e486982 0.0 1005333
21:00+18ese377590 0.0 1004114
17 may, mon
mon1700:00+17ese3484100 0.0 100451
03:00+16se33884 0.0 100436
06:00+17se22838 0.0 100552
09:00+22wnw3462100 0.0 1006436
12:00+24nw5572100 0.0 10071041
15:00+19wnw71091100 0.6 1008429
18:00+18nnw3794100 6.2 1009333
21:00+16wnw3798100 7.9 1011292
18 may, tue
tue1800:00+14wnw4109798 1.4 1012428
03:00+14wnw4109899 1.6 1012450
06:00+14wnw4897100 1.1 1014428
09:00+16w4683100 1.2 1014612
12:00+20nw556848 0.0 10141156
15:00+19nw457156 0.2 1014961
18:00+19nw2375100 0.1 1015581
21:00+15sw118593 0.3 101611
19 may, wed
wed1900:00+14ssw22905 0.0 101612
03:00+12s22925 0.0 101616
06:00+14sse228931 0.0 101671
09:00+20ese23701 0.0 1015659
12:00+23e345712 0.0 10141133
15:00+24e56565 0.0 10121199
18:00+22e597259 0.0 1012440
21:00+18e49739 0.0 1012238